LEDGEWOOD Weather Reports


Display with metric or nautical units.
time (UTC)temp
F
wind
direction
speed
MPH
gust
MPH
rain 1hr
in
rain 24hr
in
rain mn
in
humidity
%
barometer
mb
20260507204601 61 289 3.0 7.0 0.00 0.25 0.00 34 1003.8
20260507203110 61 224 2.0 6.0 0.00 0.25 0.00 34 1003.9
20260507201617 62 273 3.0 7.0 0.00 0.25 0.00 32 1003.8
20260507200110 62 262 3.0 9.0 0.00 0.25 0.00 34 1003.9
20260507194557 61 239 3.0 8.0 0.00 0.29 0.00 34 1004.0
20260507193059 62 267 2.0 6.0 0.00 0.29 0.00 34 1004.0
20260507191603 61 79 1.0 4.0 0.00 0.29 0.00 37 1004.2
20260507190108 60 285 4.0 7.0 0.00 0.29 0.00 36 1004.5
20260507184619 60 275 2.0 8.0 0.00 0.40 0.00 36 1004.7
20260507183058 62 295 3.0 7.0 0.00 0.40 0.00 35 1004.7
20260507181601 61 23 3.0 9.0 0.00 0.40 0.00 33 1004.7
20260507180059 61 345 2.0 8.0 0.00 0.40 0.00 34 1004.8
20260507174558 62 255 3.0 11.0 0.00 0.40 0.00 35 1004.7
20260507173103 62 278 4.0 8.0 0.00 0.40 0.00 38 1004.7
20260507171606 62 342 2.0 8.0 0.00 0.40 0.00 39 1004.6
20260507170104 62 290 3.0 8.0 0.00 0.40 0.00 39 1005.1
20260507164605 61 238 2.0 8.0 0.00 0.40 0.00 46 1005.1
20260507163058 60 144 1.0 5.0 0.00 0.40 0.00 50 1005.2
20260507161558 59 261 3.0 7.0 0.00 0.40 0.00 52 1005.5
20260507160058 61 304 2.0 5.0 0.00 0.40 0.00 52 1005.4
20260507154600 58 351 2.0 5.0 0.00 0.40 0.00 54 1005.8
20260507153106 59 228 1.0 6.0 0.00 0.40 0.00 59 1005.9
20260507151559 58 266 1.0 6.0 0.00 0.40 0.00 55 1006.1
20260507150058 58 277 2.0 6.0 0.00 0.40 0.00 59 1006.3
20260507144600 58 0 2.0 10.0 0.00 0.40 0.00 56 1006.1
20260507143107 57 262 3.0 8.0 0.00 0.40 0.00 58 1006.1
20260507141557 58 0 2.0 7.0 0.00 0.40 0.00 59 1006.0
20260507140100 58 257 2.0 7.0 0.00 0.40 0.00 61 1006.0
20260507134607 57 276 2.0 4.0 0.00 0.40 0.00 59 1005.9
20260507133134 57 96 2.0 6.0 0.00 0.40 0.00 60 1006.1
20260507131558 56 229 2.0 5.0 0.00 0.40 0.00 61 1006.2
20260507130108 55 281 2.0 6.0 0.00 0.40 0.00 67 1006.2
20260507124558 54 162 2.0 5.0 0.00 0.40 0.00 65 1006.2
20260507123106 53 241 1.0 5.0 0.00 0.40 0.00 65 1006.5
20260507121622 52 313 1.0 6.0 0.00 0.40 0.00 71 1006.7
20260507120109 51 200 0.0 3.0 0.00 0.40 0.00 75 1006.6
20260507114640 50 0 1.0 2.0 0.00 0.40 0.00 77 1006.6
20260507113105 48 0 0.0 1.0 0.00 0.40 0.00 83 1006.5
20260507111612 47 227 0.0 2.0 0.00 0.40 0.00 86 1006.5
20260507110109 47 0 0.0 0.0 0.00 0.40 0.00 86 1006.2
20260507104601 46 0 0.0 1.0 0.00 0.40 0.00 87 1006.2
20260507103101 46 0 0.0 2.0 0.00 0.40 0.00 86 1006.0
20260507101614 46 0 0.0 2.0 0.00 0.40 0.00 86 1006.1
20260507100104 46 0 0.0 1.0 0.00 0.40 0.00 87 1006.4
20260507094605 46 290 0.0 3.0 0.00 0.40 0.00 89 1006.2
20260507093101 47 0 1.0 5.0 0.00 0.40 0.00 87 1005.8
20260507091558 47 217 0.0 4.0 0.00 0.40 0.00 88 1005.9
20260507084602 47 0 0.0 2.0 0.00 0.40 0.00 90 1005.4
20260507083059 47 0 0.0 3.0 0.00 0.40 0.00 90 1005.4
20260507081601 47 304 0.0 2.0 0.00 0.40 0.00 89 1005.2
20260507080120 48 279 0.0 3.0 0.00 0.40 0.00 89 1005.8
20260507074558 48 236 0.0 3.0 0.00 0.40 0.00 89 1005.6
20260507073109 48 227 0.0 3.0 0.00 0.40 0.00 88 1005.3
20260507071558 49 206 1.0 3.0 0.00 0.40 0.00 88 1005.4
20260507070059 49 226 2.0 5.0 0.00 0.40 0.00 88 1005.2
20260507064605 49 276 0.0 6.0 0.00 0.40 0.00 90 1005.2
20260507063105 49 283 0.0 3.0 0.00 0.40 0.00 90 1005.1
20260507061559 49 261 1.0 4.0 0.00 0.40 0.00 90 1004.9
20260507060059 50 134 0.0 3.0 0.00 0.40 0.00 91 1005.3
20260507054558 50 0 0.0 3.0 0.00 0.40 0.00 91 1005.3
20260507053118 50 0 0.0 2.0 0.00 0.40 0.00 91 1005.0
20260507051605 50 233 0.0 2.0 0.00 0.40 0.00 92 1005.2
20260507050058 51 215 0.0 2.0 0.00 0.40 0.00 90 1004.9
20260507044601 51 283 1.0 5.0 0.00 0.40 0.00 91 1005.3
20260507043059 51 0 1.0 4.0 0.00 0.40 0.00 91 1005.3
20260507041600 52 255 1.0 7.0 0.01 0.40 0.00 92 1005.2
20260507034600 53 183 2.0 6.0 0.01 0.40 0.40 92 1004.6
20260507033101 55 275 2.0 6.0 0.01 0.40 0.40 94 1004.7
20260507031600 56 229 1.0 6.0 0.00 0.39 0.39 93 1004.7
20260507024609 58 305 1.0 7.0 0.00 0.39 0.39 95 1004.1
20260507023101 59 11 2.0 4.0 0.00 0.39 0.39 96 1003.8
20260507021608 59 0 0.0 3.0 0.00 0.39 0.39 96 1003.5
20260507020114 59 0 0.0 3.0 0.00 0.39 0.39 96 1003.6
20260507014606 59 0 0.0 6.0 0.00 0.39 0.39 96 1003.9
20260507013101 59 0 0.0 2.0 0.00 0.39 0.39 96 1003.9
20260507011601 59 0 0.0 2.0 0.00 0.39 0.39 96 1003.9
20260507004608 59 207 0.0 1.0 0.00 0.39 0.39 96 1003.9
20260507003100 59 0 0.0 3.0 0.00 0.39 0.39 96 1003.9
20260507001601 59 240 0.0 3.0 0.01 0.39 0.39 96 1003.8
20260507000101 59 0 1.0 6.0 0.01 0.39 0.39 96 1003.7
20260506234559 59 126 1.0 4.0 0.01 0.39 0.39 95 1003.5
20260506233112 59 91 0.0 4.0 0.01 0.39 0.39 95 1003.4
20260506231602 59 0 0.0 3.0 0.00 0.38 0.38 95 1003.7
20260506230059 59 113 1.0 3.0 0.00 0.38 0.38 95 1003.7
20260506224600 60 94 1.0 8.0 0.04 0.38 0.38 95 1003.7
20260506223059 59 135 1.0 5.0 0.06 0.38 0.38 95 1003.9
20260506221612 60 265 1.0 4.0 0.09 0.38 0.38 95 1004.0
20260506220100 59 257 1.0 4.0 0.12 0.38 0.38 95 1004.2
20260506214559 60 197 2.0 5.0 0.10 0.34 0.34 95 1004.4
20260506213120 60 9 1.0 5.0 0.10 0.32 0.32 94 1004.5
20260506211558 61 177 2.0 5.0 0.12 0.29 0.29 95 1004.6
20260506210101 61 154 0.0 4.0 0.11 0.26 0.26 95 1004.5